AAY209 KORD-KJFK

Flight info

Callsign AAY209
Flight time 1h 44m
Altitude 37000
Route DUFEE LOGGR HAAKK DOXXY SOSIC JHW Q476 WLKES PUCKY1
Aircraft A320/M-SDE3FGHIRWY/LB1

Departure

Time 2026-05-06 03:50
Airport Chicago O'Hare International Airport (KORD)

Arrival

Time 2026-05-06 05:34
Airport John F. Kennedy International Airport (KJFK)
Time Latitude Longitude Altitude Speed Heading
2026-05-06 03:32 41.97360 -87.88502 912 ft 0 kts 359°
2026-05-06 03:41 41.97357 -87.88502 660 ft 2 kts 359°
2026-05-06 03:42 41.97331 -87.88500 660 ft 4 kts 355°
2026-05-06 03:42 41.97304 -87.88497 660 ft 3 kts 356°
2026-05-06 03:42 41.97282 -87.88492 558 ft 4 kts 322°
2026-05-06 03:42 41.97271 -87.88465 659 ft 4 kts 273°
2026-05-06 03:43 41.97271 -87.88445 659 ft 1 kts 270°
2026-05-06 03:43 41.97271 -87.88443 659 ft 0 kts 270°
2026-05-06 03:46 41.97270 -87.88467 659 ft 5 kts 270°
2026-05-06 03:46 41.97270 -87.88530 660 ft 9 kts 269°
2026-05-06 03:46 41.97262 -87.88633 659 ft 14 kts 245°
2026-05-06 03:46 41.97199 -87.88598 657 ft 15 kts 90°
2026-05-06 03:47 41.97170 -87.88455 659 ft 18 kts 146°
2026-05-06 03:47 41.97091 -87.88428 659 ft 1 kts 170°
2026-05-06 03:47 41.97065 -87.88433 658 ft 7 kts 189°
2026-05-06 03:47 41.96998 -87.88441 657 ft 13 kts 181°
2026-05-06 03:48 41.96909 -87.88493 658 ft 16 kts 248°
2026-05-06 03:48 41.96906 -87.88547 658 ft 0 kts 271°
2026-05-06 03:48 41.96906 -87.88549 658 ft 2 kts 271°
2026-05-06 03:49 41.96905 -87.88777 656 ft 60 kts 268°
2026-05-06 03:49 41.96902 -87.89635 671 ft 121 kts 269°
2026-05-06 03:49 41.96901 -87.91005 676 ft 169 kts 270°
2026-05-06 03:49 41.96948 -87.92638 1036 ft 180 kts 271°
2026-05-06 03:50 41.96998 -87.94394 1411 ft 199 kts 275°
2026-05-06 03:50 41.97000 -87.96365 1858 ft 223 kts 274°
2026-05-06 03:50 41.97151 -87.98529 2333 ft 241 kts 295°
2026-05-06 03:50 41.97758 -87.99771 2811 ft 244 kts 320°
2026-05-06 03:51 41.99286 -88.00707 3679 ft 248 kts 355°
2026-05-06 03:51 42.01445 -87.99729 4835 ft 262 kts 42°
2026-05-06 03:51 42.02362 -87.97605 5739 ft 272 kts 77°
2026-05-06 03:51 42.02457 -87.95046 6617 ft 278 kts 91°
2026-05-06 03:52 42.02371 -87.92409 7399 ft 287 kts 92°
2026-05-06 03:52 42.02280 -87.89689 8161 ft 295 kts 92°
2026-05-06 03:52 42.02216 -87.87803 8674 ft 302 kts 93°
2026-05-06 03:52 42.02128 -87.84943 9437 ft 311 kts 91°
2026-05-06 03:53 42.02250 -87.81992 10059 ft 324 kts 84°
2026-05-06 03:53 42.02578 -87.78882 10353 ft 347 kts 80°
2026-05-06 03:53 42.03020 -87.75663 10871 ft 361 kts 78°
2026-05-06 03:53 42.03508 -87.72313 11582 ft 368 kts 78°
2026-05-06 03:54 42.03989 -87.68906 12287 ft 375 kts 79°
2026-05-06 03:54 42.04450 -87.65428 13002 ft 380 kts 80°
2026-05-06 03:54 42.04889 -87.61891 13706 ft 386 kts 81°
2026-05-06 03:54 42.05312 -87.58300 14325 ft 391 kts 81°
2026-05-06 03:55 42.05730 -87.54658 14948 ft 397 kts 81°
2026-05-06 03:55 42.06150 -87.50964 15564 ft 402 kts 81°
2026-05-06 03:55 42.06575 -87.47220 16160 ft 407 kts 82°
2026-05-06 03:55 42.07010 -87.43431 16778 ft 413 kts 82°
2026-05-06 03:56 42.07455 -87.39585 17365 ft 418 kts 82°
2026-05-06 03:56 42.07906 -87.35696 17933 ft 423 kts 82°
2026-05-06 03:56 42.08359 -87.31753 18446 ft 429 kts 82°
2026-05-06 03:56 42.08816 -87.27768 18967 ft 432 kts 82°
2026-05-06 03:57 42.09275 -87.23751 19493 ft 436 kts 82°
2026-05-06 03:57 42.09738 -87.19691 20017 ft 440 kts 82°
2026-05-06 03:57 42.10202 -87.15606 20536 ft 444 kts 83°
2026-05-06 03:57 42.10669 -87.11475 21050 ft 448 kts 83°
2026-05-06 03:58 42.11135 -87.07310 21577 ft 452 kts 84°
2026-05-06 03:58 42.11375 -87.03077 22078 ft 455 kts 89°
2026-05-06 03:58 42.11529 -86.98866 22575 ft 458 kts 90°
2026-05-06 03:58 42.11685 -86.94551 23060 ft 462 kts 90°
2026-05-06 03:59 42.11842 -86.90208 23537 ft 466 kts 90°
2026-05-06 03:59 42.11997 -86.85829 23904 ft 470 kts 90°
2026-05-06 03:59 42.12152 -86.81408 24274 ft 474 kts 90°
2026-05-06 03:59 42.12309 -86.76964 24634 ft 477 kts 90°
2026-05-06 04:00 42.12468 -86.72481 24982 ft 481 kts 90°
2026-05-06 04:00 42.12629 -86.67965 25325 ft 484 kts 90°
2026-05-06 04:00 42.12788 -86.63426 25656 ft 487 kts 90°
2026-05-06 04:00 42.12943 -86.58848 25994 ft 490 kts 90°
2026-05-06 04:01 42.13096 -86.54249 26307 ft 493 kts 90°
2026-05-06 04:01 42.13248 -86.49622 26669 ft 496 kts 91°
2026-05-06 04:01 42.13399 -86.44964 27031 ft 499 kts 91°
2026-05-06 04:01 42.13548 -86.40285 27394 ft 501 kts 91°
2026-05-06 04:02 42.13696 -86.35581 27755 ft 504 kts 91°
2026-05-06 04:02 42.13843 -86.30851 28130 ft 507 kts 91°
2026-05-06 04:02 42.13988 -86.26092 28458 ft 511 kts 91°
2026-05-06 04:02 42.14133 -86.21295 29001 ft 514 kts 91°
2026-05-06 04:03 42.14276 -86.16473 29303 ft 516 kts 91°
2026-05-06 04:03 42.14421 -86.11635 29662 ft 518 kts 92°
2026-05-06 04:03 42.14514 -86.06780 29976 ft 519 kts 93°
2026-05-06 04:03 42.14520 -86.01908 30227 ft 521 kts 95°
2026-05-06 04:04 42.14467 -85.97015 30441 ft 523 kts 95°
2026-05-06 04:04 42.14384 -85.92101 30642 ft 526 kts 95°
2026-05-06 04:04 42.14297 -85.87223 30839 ft 529 kts 95°
2026-05-06 04:04 42.14221 -85.82191 31037 ft 532 kts 95°
2026-05-06 04:05 42.14166 -85.77254 31224 ft 535 kts 94°
2026-05-06 04:05 42.14125 -85.72226 31416 ft 538 kts 94°
2026-05-06 04:05 42.14089 -85.67195 31716 ft 538 kts 94°
2026-05-06 04:05 42.14053 -85.62157 32010 ft 538 kts 93°
2026-05-06 04:06 42.14013 -85.57112 32291 ft 539 kts 93°
2026-05-06 04:06 42.13963 -85.51988 32575 ft 540 kts 93°
2026-05-06 04:06 42.13909 -85.46993 32851 ft 541 kts 93°
2026-05-06 04:06 42.13850 -85.41922 33129 ft 542 kts 93°
2026-05-06 04:07 42.13788 -85.36855 33479 ft 541 kts 93°
2026-05-06 04:07 42.13728 -85.31784 33797 ft 542 kts 92°
2026-05-06 04:07 42.13666 -85.26708 34040 ft 542 kts 92°
2026-05-06 04:07 42.13601 -85.21633 34292 ft 542 kts 92°
2026-05-06 04:08 42.13532 -85.16553 34533 ft 542 kts 92°
2026-05-06 04:08 42.13460 -85.11475 34766 ft 542 kts 92°
2026-05-06 04:08 42.13385 -85.06400 35003 ft 542 kts 92°
2026-05-06 04:08 42.13309 -85.01329 35262 ft 541 kts 92°
2026-05-06 04:09 42.13229 -84.96265 35536 ft 540 kts 92°
2026-05-06 04:09 42.13142 -84.91206 35750 ft 540 kts 92°
2026-05-06 04:09 42.13048 -84.86147 35983 ft 540 kts 92°
2026-05-06 04:09 42.12947 -84.81089 36216 ft 540 kts 92°
2026-05-06 04:10 42.12842 -84.76033 36424 ft 540 kts 92°
2026-05-06 04:10 42.12737 -84.70974 36625 ft 540 kts 92°
2026-05-06 04:10 42.12634 -84.65911 36801 ft 540 kts 92°
2026-05-06 04:10 42.12534 -84.60858 36881 ft 538 kts 92°
2026-05-06 04:11 42.12329 -84.50807 36886 ft 536 kts 91°
2026-05-06 04:11 42.12991 -84.40855 36899 ft 533 kts 79°
2026-05-06 04:12 42.14110 -84.30985 36929 ft 533 kts 79°
2026-05-06 04:12 42.15209 -84.21128 36916 ft 531 kts 79°
2026-05-06 04:13 42.16294 -84.11298 36917 ft 530 kts 79°
2026-05-06 04:13 42.17374 -84.01471 36925 ft 530 kts 79°
2026-05-06 04:14 42.18449 -83.91640 36936 ft 530 kts 79°
2026-05-06 04:14 42.19510 -83.81822 36842 ft 529 kts 79°
2026-05-06 04:15 42.20559 -83.72010 36846 ft 528 kts 79°
2026-05-06 04:15 42.21589 -83.62274 36810 ft 527 kts 80°
2026-05-06 04:16 42.22625 -83.52489 36824 ft 527 kts 80°
2026-05-06 04:16 42.23045 -83.42626 36805 ft 527 kts 89°
2026-05-06 04:17 42.23122 -83.32751 36797 ft 526 kts 89°
2026-05-06 04:17 42.23201 -83.22882 36801 ft 526 kts 89°
2026-05-06 04:18 42.23271 -83.13020 36806 ft 525 kts 89°
2026-05-06 04:18 42.23330 -83.03179 36792 ft 524 kts 89°
2026-05-06 04:19 42.23370 -82.93354 36791 ft 523 kts 89°
2026-05-06 04:19 42.23415 -82.83548 36799 ft 522 kts 89°
2026-05-06 04:20 42.23461 -82.73818 36816 ft 521 kts 89°
2026-05-06 04:20 42.23489 -82.64054 36869 ft 520 kts 90°
2026-05-06 04:21 42.23500 -82.54317 36905 ft 519 kts 90°
2026-05-06 04:21 42.23507 -82.44598 36894 ft 517 kts 90°
2026-05-06 04:22 42.23508 -82.39741 37055 ft 517 kts 90°
2026-05-06 04:22 42.23508 -82.34938 36831 ft 505 kts 91°
2026-05-06 04:22 42.23506 -82.30281 36828 ft 490 kts 91°
2026-05-06 04:23 42.23493 -82.21185 36801 ft 482 kts 91°
2026-05-06 04:23 42.23478 -82.12156 36791 ft 481 kts 91°
2026-05-06 04:24 42.23457 -82.03136 36790 ft 481 kts 91°
2026-05-06 04:24 42.23423 -81.94125 36804 ft 480 kts 91°
2026-05-06 04:25 42.23379 -81.85107 36834 ft 480 kts 91°
2026-05-06 04:25 42.23335 -81.76098 36869 ft 480 kts 91°
2026-05-06 04:26 42.23280 -81.67143 36888 ft 481 kts 91°
2026-05-06 04:26 42.23222 -81.58124 36907 ft 480 kts 91°
2026-05-06 04:27 42.23159 -81.49113 36919 ft 480 kts 91°
2026-05-06 04:27 42.23080 -81.40104 36919 ft 480 kts 92°
2026-05-06 04:28 42.22993 -81.31090 36924 ft 480 kts 92°
2026-05-06 04:28 42.22907 -81.22078 36921 ft 480 kts 91°
2026-05-06 04:29 42.22827 -81.13067 36929 ft 480 kts 91°
2026-05-06 04:29 42.22724 -81.04056 36938 ft 480 kts 92°
2026-05-06 04:30 42.22607 -80.95044 36939 ft 480 kts 92°
2026-05-06 04:30 42.22486 -80.86037 36930 ft 480 kts 92°
2026-05-06 04:31 42.22366 -80.77034 36935 ft 480 kts 92°
2026-05-06 04:31 42.22239 -80.68042 36930 ft 479 kts 92°
2026-05-06 04:32 42.22101 -80.59053 36925 ft 479 kts 92°
2026-05-06 04:32 42.21959 -80.50079 36916 ft 478 kts 92°
2026-05-06 04:33 42.21807 -80.41112 36923 ft 478 kts 92°
2026-05-06 04:33 42.21649 -80.32141 36909 ft 478 kts 92°
2026-05-06 04:34 42.21485 -80.23177 36901 ft 478 kts 92°
2026-05-06 04:34 42.21308 -80.14272 36887 ft 478 kts 92°
2026-05-06 04:35 42.21128 -80.05324 36899 ft 477 kts 92°
2026-05-06 04:35 42.20947 -79.96372 36900 ft 477 kts 92°
2026-05-06 04:35 42.20854 -79.91901 36769 ft 476 kts 92°
2026-05-06 04:36 42.20760 -79.87455 36747 ft 473 kts 92°
2026-05-06 04:36 42.20563 -79.78602 36736 ft 473 kts 92°
2026-05-06 04:37 42.20359 -79.69736 36767 ft 473 kts 92°
2026-05-06 04:37 42.20148 -79.60858 36762 ft 474 kts 92°
2026-05-06 04:38 42.19931 -79.51974 36772 ft 474 kts 92°
2026-05-06 04:38 42.19703 -79.43090 36767 ft 474 kts 92°
2026-05-06 04:39 42.19467 -79.34206 36781 ft 474 kts 92°
2026-05-06 04:39 42.19223 -79.25317 36775 ft 474 kts 93°
2026-05-06 04:40 42.18975 -79.16438 36783 ft 474 kts 94°
2026-05-06 04:40 42.17783 -79.07768 36797 ft 470 kts 111°
2026-05-06 04:41 42.15694 -78.99428 36786 ft 470 kts 111°
2026-05-06 04:41 42.13609 -78.91080 36789 ft 470 kts 111°
2026-05-06 04:42 42.11522 -78.82729 36795 ft 470 kts 111°
2026-05-06 04:42 42.09780 -78.75797 36797 ft 470 kts 111°
2026-05-06 04:43 42.07330 -78.66110 36779 ft 471 kts 111°
2026-05-06 04:43 42.05210 -78.57768 36774 ft 471 kts 111°
2026-05-06 04:44 42.03427 -78.50780 36761 ft 471 kts 111°
2026-05-06 04:44 42.01311 -78.42502 36774 ft 471 kts 111°
2026-05-06 04:45 41.99183 -78.34170 36792 ft 471 kts 111°
2026-05-06 04:45 41.97046 -78.25845 36801 ft 471 kts 111°
2026-05-06 04:46 41.94901 -78.17536 36810 ft 471 kts 111°
2026-05-06 04:46 41.92749 -78.09226 36817 ft 471 kts 111°
2026-05-06 04:47 41.90595 -78.00921 36817 ft 471 kts 111°
2026-05-06 04:47 41.88432 -77.92622 36818 ft 471 kts 111°
2026-05-06 04:48 41.86261 -77.84332 36822 ft 471 kts 111°
2026-05-06 04:48 41.84090 -77.76051 36810 ft 471 kts 111°
2026-05-06 04:49 41.81912 -77.67778 36811 ft 470 kts 111°
2026-05-06 04:49 41.79723 -77.59516 36813 ft 470 kts 111°
2026-05-06 04:50 41.77528 -77.51256 36803 ft 471 kts 111°
2026-05-06 04:50 41.75348 -77.43053 36803 ft 471 kts 111°
2026-05-06 04:51 41.73142 -77.34785 36798 ft 471 kts 112°
2026-05-06 04:51 41.70927 -77.26531 36806 ft 471 kts 111°
2026-05-06 04:52 41.68716 -77.18279 36801 ft 471 kts 111°
2026-05-06 04:52 41.66503 -77.10051 36811 ft 470 kts 111°
2026-05-06 04:53 41.64282 -77.01847 36812 ft 469 kts 111°
2026-05-06 04:53 41.62060 -76.93660 36810 ft 468 kts 112°
2026-05-06 04:54 41.59825 -76.85485 36812 ft 468 kts 111°
2026-05-06 04:54 41.57591 -76.77312 36807 ft 468 kts 111°
2026-05-06 04:55 41.55352 -76.69141 36800 ft 469 kts 111°
2026-05-06 04:55 41.53121 -76.61031 36801 ft 469 kts 111°
2026-05-06 04:56 41.50875 -76.52863 36801 ft 469 kts 111°
2026-05-06 04:56 41.48621 -76.44701 36810 ft 469 kts 111°
2026-05-06 04:57 41.46347 -76.36532 36814 ft 470 kts 111°
2026-05-06 04:57 41.44065 -76.28362 36832 ft 470 kts 111°
2026-05-06 04:58 41.41782 -76.20196 36842 ft 470 kts 111°
2026-05-06 04:58 41.39497 -76.12031 36833 ft 470 kts 111°
2026-05-06 04:59 41.37206 -76.03877 36849 ft 470 kts 111°
2026-05-06 04:59 41.34912 -75.95729 36849 ft 470 kts 111°
2026-05-06 05:00 41.32608 -75.87590 36880 ft 470 kts 111°
2026-05-06 05:00 41.30299 -75.79469 36875 ft 469 kts 111°
2026-05-06 05:01 41.27984 -75.71362 36884 ft 469 kts 111°
2026-05-06 05:01 41.25566 -75.63326 36887 ft 468 kts 114°
2026-05-06 05:02 41.22893 -75.55455 36914 ft 467 kts 116°
2026-05-06 05:02 41.20162 -75.47615 36922 ft 467 kts 115°
2026-05-06 05:03 41.17501 -75.39801 36911 ft 467 kts 115°
2026-05-06 05:03 41.14866 -75.31921 36915 ft 467 kts 115°
2026-05-06 05:04 41.12230 -75.24042 36915 ft 467 kts 115°
2026-05-06 05:04 41.09572 -75.16175 36913 ft 467 kts 115°
2026-05-06 05:05 41.06897 -75.08329 36910 ft 467 kts 115°
2026-05-06 05:05 41.04219 -75.00484 36904 ft 467 kts 115°
2026-05-06 05:06 41.01537 -74.92637 36901 ft 467 kts 115°
2026-05-06 05:06 40.99336 -74.84561 36903 ft 468 kts 101°
2026-05-06 05:07 40.98331 -74.76063 36904 ft 467 kts 98°
2026-05-06 05:07 40.97345 -74.67561 36901 ft 468 kts 98°
2026-05-06 05:08 40.96340 -74.59055 36919 ft 468 kts 98°
2026-05-06 05:08 40.95331 -74.50551 36927 ft 468 kts 98°
2026-05-06 05:09 40.94316 -74.42053 36934 ft 468 kts 98°
2026-05-06 05:09 40.93804 -74.37801 36709 ft 468 kts 98°
2026-05-06 05:09 40.93297 -74.33618 36453 ft 467 kts 98°
2026-05-06 05:09 40.92778 -74.29344 36150 ft 465 kts 98°
2026-05-06 05:10 40.92300 -74.25411 35625 ft 463 kts 98°
2026-05-06 05:10 40.91791 -74.21222 35076 ft 460 kts 98°
2026-05-06 05:10 40.91266 -74.17065 34527 ft 457 kts 101°
2026-05-06 05:10 40.90415 -74.12994 34044 ft 450 kts 109°
2026-05-06 05:11 40.89176 -74.09232 33510 ft 442 kts 118°
2026-05-06 05:11 40.87626 -74.05830 33048 ft 433 kts 123°
2026-05-06 05:11 40.85982 -74.02482 32578 ft 425 kts 123°
2026-05-06 05:11 40.84420 -73.99290 32135 ft 417 kts 123°
2026-05-06 05:12 40.82860 -73.96097 31694 ft 410 kts 123°
2026-05-06 05:12 40.81325 -73.92960 31269 ft 403 kts 123°
2026-05-06 05:12 40.79818 -73.89879 30851 ft 396 kts 124°
2026-05-06 05:12 40.78326 -73.86861 30442 ft 390 kts 127°
2026-05-06 05:13 40.76426 -73.84421 30055 ft 377 kts 153°
2026-05-06 05:13 40.74019 -73.83263 29632 ft 366 kts 174°
2026-05-06 05:13 40.71494 -73.82809 29256 ft 366 kts 176°
2026-05-06 05:13 40.68975 -73.82397 28923 ft 365 kts 176°
2026-05-06 05:14 40.66461 -73.81999 28554 ft 362 kts 176°
2026-05-06 05:14 40.63969 -73.81608 28192 ft 360 kts 176°
2026-05-06 05:14 40.61498 -73.81217 27826 ft 358 kts 176°
2026-05-06 05:14 40.59025 -73.80822 27469 ft 355 kts 176°
2026-05-06 05:15 40.56584 -73.80425 27103 ft 353 kts 176°
2026-05-06 05:15 40.54148 -73.80025 26737 ft 351 kts 176°
2026-05-06 05:15 40.51733 -73.79627 26357 ft 349 kts 176°
2026-05-06 05:15 40.49333 -73.79234 25985 ft 347 kts 176°
2026-05-06 05:16 40.46943 -73.78843 25610 ft 345 kts 176°
2026-05-06 05:16 40.44573 -73.78454 25215 ft 343 kts 176°
2026-05-06 05:16 40.42205 -73.78070 24822 ft 341 kts 176°
2026-05-06 05:16 40.39853 -73.77692 24417 ft 339 kts 176°
2026-05-06 05:17 40.37519 -73.77314 24023 ft 337 kts 176°
2026-05-06 05:17 40.35193 -73.76937 23626 ft 336 kts 176°
2026-05-06 05:17 40.32872 -73.76559 23177 ft 335 kts 176°
2026-05-06 05:17 40.30551 -73.76179 22779 ft 347 kts 176°
2026-05-06 05:18 40.28143 -73.75791 22350 ft 354 kts 176°
2026-05-06 05:18 40.25706 -73.75392 21945 ft 351 kts 176°
2026-05-06 05:18 40.23261 -73.74992 21523 ft 348 kts 176°
2026-05-06 05:18 40.20904 -73.74611 21120 ft 345 kts 176°
2026-05-06 05:19 40.18553 -73.74019 20706 ft 347 kts 162°
2026-05-06 05:19 40.16516 -73.72316 20253 ft 353 kts 136°
2026-05-06 05:19 40.15229 -73.69585 19821 ft 357 kts 109°
2026-05-06 05:19 40.14965 -73.66381 19400 ft 357 kts 82°
2026-05-06 05:20 40.15782 -73.63360 18980 ft 353 kts 54°
2026-05-06 05:20 40.17476 -73.61124 18585 ft 344 kts 27°
2026-05-06 05:20 40.19663 -73.60040 18170 ft 333 kts
2026-05-06 05:20 40.21920 -73.60206 18043 ft 323 kts 343°
2026-05-06 05:21 40.24157 -73.60642 18047 ft 330 kts 355°
2026-05-06 05:21 40.26453 -73.60246 18039 ft 338 kts 12°
2026-05-06 05:21 40.28628 -73.59036 18014 ft 343 kts 28°
2026-05-06 05:21 40.30571 -73.57192 18012 ft 346 kts 33°
2026-05-06 05:22 40.32608 -73.55564 18011 ft 342 kts 21°
2026-05-06 05:22 40.34829 -73.54513 18007 ft 337 kts
2026-05-06 05:22 40.37125 -73.53939 18010 ft 336 kts
2026-05-06 05:22 40.39424 -73.53398 18012 ft 336 kts
2026-05-06 05:23 40.41727 -73.52843 18006 ft 336 kts
2026-05-06 05:23 40.44027 -73.52278 18008 ft 336 kts
2026-05-06 05:23 40.48628 -73.51140 18007 ft 336 kts
2026-05-06 05:24 40.50928 -73.50572 18005 ft 337 kts
2026-05-06 05:24 40.53229 -73.50005 18006 ft 337 kts
2026-05-06 05:24 40.55532 -73.49440 18008 ft 337 kts
2026-05-06 05:24 40.57833 -73.48877 17563 ft 339 kts
2026-05-06 05:25 40.60194 -73.48304 16776 ft 348 kts
2026-05-06 05:25 40.62569 -73.47725 15948 ft 347 kts
2026-05-06 05:25 40.64931 -73.47145 15073 ft 347 kts
2026-05-06 05:25 40.67300 -73.46552 14205 ft 347 kts
2026-05-06 05:26 40.69592 -73.45534 13280 ft 350 kts 22°
2026-05-06 05:26 40.71748 -73.44165 12328 ft 349 kts 22°
2026-05-06 05:26 40.73991 -73.42857 11371 ft 343 kts 12°
2026-05-06 05:26 40.76298 -73.42696 10487 ft 327 kts 343°
2026-05-06 05:27 40.78276 -73.43954 9628 ft 311 kts 314°
2026-05-06 05:27 40.79597 -73.46057 8807 ft 301 kts 300°
2026-05-06 05:27 40.80660 -73.48397 8001 ft 294 kts 295°
2026-05-06 05:27 40.81612 -73.50758 7225 ft 288 kts 293°
2026-05-06 05:28 40.82177 -73.53216 6479 ft 276 kts 269°
2026-05-06 05:28 40.81822 -73.55643 5753 ft 267 kts 249°
2026-05-06 05:28 40.81199 -73.57912 5175 ft 257 kts 250°
2026-05-06 05:28 40.80624 -73.60075 4701 ft 243 kts 250°
2026-05-06 05:29 40.80084 -73.62127 4270 ft 230 kts 248°
2026-05-06 05:29 40.79259 -73.63833 3870 ft 217 kts 223°
2026-05-06 05:29 40.78027 -73.64904 3519 ft 208 kts 214°
2026-05-06 05:29 40.76819 -73.65850 3161 ft 199 kts 213°
2026-05-06 05:30 40.75655 -73.66760 2805 ft 190 kts 213°
2026-05-06 05:30 40.74541 -73.67633 2477 ft 183 kts 213°
2026-05-06 05:30 40.73478 -73.68466 2149 ft 172 kts 214°
2026-05-06 05:30 40.72498 -73.69234 1953 ft 152 kts 213°
2026-05-06 05:31 40.71648 -73.69901 1910 ft 136 kts 214°
2026-05-06 05:31 40.70852 -73.70526 1908 ft 132 kts 213°
2026-05-06 05:31 40.70070 -73.71140 1902 ft 130 kts 214°
2026-05-06 05:31 40.69293 -73.71749 1910 ft 130 kts 214°
2026-05-06 05:32 40.68519 -73.72356 1918 ft 129 kts 213°
2026-05-06 05:32 40.67742 -73.72958 1746 ft 130 kts 213°
2026-05-06 05:32 40.66964 -73.73543 1375 ft 126 kts 214°
2026-05-06 05:32 40.66163 -73.74185 872 ft 165 kts 211°
2026-05-06 05:33 40.65146 -73.75011 457 ft 165 kts 211°
2026-05-06 05:33 40.64211 -73.75744 93 ft 153 kts 210°
2026-05-06 05:33 40.63337 -73.76417 23 ft 148 kts 204°
2026-05-06 05:33 40.62395 -73.77154 29 ft 130 kts 197°
2026-05-06 05:34 40.62195 -73.77476 14 ft 9 kts 179°
2026-05-06 05:34 40.62208 -73.77401 15 ft 8 kts 163°
2026-05-06 05:34 40.62220 -73.77340 16 ft 6 kts 163°
2026-05-06 05:34 40.62226 -73.77306 17 ft 5 kts 163°